Погода в Богоре

Индонезия     6°36′03″S   106°48′05″E
темп.,
°C
ветер,
м/с
пор.,
м/с
влажн.,
%
обл.,
%
осадки,
мм/ч
давл.,
гПа
погр.,
м
2 марта, вт
вт201:00+25юз1287100 0.6 101073
04:00+24зюз2291100 5.4 100951
07:00+25ююз228597 6.2 1011123
10:00+28зсз237152 0.3 1012892
13:00+30зсз446536 2.5 10091118
16:00+30зсз446673 1.6 10071003
19:00+26юз228286 6.7 101069
22:00+25ю2383100 0.3 101267
3 марта, ср
ср301:00+25ю1180100 0.3 101045
04:00+25юв1181100 0.0 100944
07:00+25ю118197 0.0 101048
10:00+29с226768 0.0 1011955
13:00+30ссз236553 2.3 10091026
16:00+29ссз237170 4.2 1007890
19:00+26зюз118585 8.6 101088
22:00+26зюз1186100 2.7 101238
4 марта, чт
чт401:00+24юв3488100 6.0 1011111
04:00+23ююв3487100 0.8 101095
07:00+25ююв1182100 0.9 101273
10:00+28св126689 0.0 1012937
13:00+30сз226070 0.1 10101272
16:00+29зюз3372100 4.2 1008400
19:00+27юз2279100 7.8 101097
22:00+25ю2383100 0.1 101272
5 марта, пт
пт501:00+25юв1283100 0.1 101153
04:00+25ююз0084100 0.0 101051
07:00+25ююз227998 0.0 101190
10:00+30ссз115769 0.0 1012839
13:00+32ссз325237 0.0 10091360
16:00+30с44653 1.0 10071012
19:00+26ссв128352 4.4 100976
22:00+26в1184100 5.0 101159
6 марта, сб
сб601:00+25св0187100 8.5 101048
04:00+24ю008786 2.4 100952
07:00+25ююз118354 2.9 101098
10:00+28ссз12691 0.1 1011869
13:00+30сз33685 4.3 1009955
16:00+27зсз248071 12.1 1007354
19:00+24ююз119585 27.4 101099
22:00+23ю1296100 59.5 1012134